Wetbulb
57.03 57.57 57.82 57.68 57.73 57.33 57.43 57.52 57.31 57.31 57.00 57.14 56.69 56.60 56.47 56.35 55.74 54.03 49.52 54.68 57.38 60.43 61.23 55.05 54.54 55.88 56.67 54.45 56.35 56.69 49.76 48.53 50.19 52.65 54.75 58.97 58.80 62.60 63.74 61.47 61.49 62.24 70.10 71.55 72.74
56.64 56.68 57.22 57.15 57.35 57.22 56.63 56.62 56.93 57.03 57.26 57.12 57.19 56.48 56.03 56.09 53.53 51.63 58.20 61.69 61.66 60.16 54.78 52.17 51.04 52.85 52.11 52.74 53.51 52.40 49.46 49.34 54.28 55.41 54.49 57.38 57.57 60.08 59.71 58.67 58.39 60.77 72.28 73.18 71.60
56.53 56.54 57.26 56.89 56.49 56.77 56.55 56.25 56.33 56.48 56.95 57.02 56.88 56.71 55.86 55.66 50.73 52.12 64.23 62.67 62.83 60.30 54.65 52.89 51.88 52.38 50.17 52.30 51.74 51.95 49.57 52.82 54.00 56.65 57.55 57.95 57.71 60.49 55.27 56.52 58.50 58.90 63.99 72.30 71.49
56.09 56.13 56.40 56.84 56.28 56.43 56.38 55.96 56.05 56.43 56.56 56.63 56.53 56.48 55.96 54.45 44.35 52.97 64.18 65.21 63.78 57.49 53.53 51.69 50.37 48.27 49.07 48.07 51.88 48.61 52.68 53.67 55.05 56.73 57.54 56.20 58.69 55.21 55.75 57.30 59.60 60.86 63.08 67.01 71.54
55.75 55.92 55.84 55.80 56.03 56.14 56.17 55.84 55.69 55.68 55.84 56.04 55.96 56.08 54.45 50.06 50.55 57.95 64.25 64.47 59.56 55.48 51.70 50.20 48.79 48.43 47.02 49.16 50.15 49.39 51.45 54.05 54.61 56.43 55.54 58.36 55.04 54.71 54.73 58.27 59.73 58.89 60.15 62.21 68.23
55.67 55.58 55.40 54.96 55.34 55.74 55.72 55.59 55.61 55.35 55.12 55.32 55.60 55.63 51.33 45.11 58.40 59.92 58.97 58.17 56.92 54.46 51.19 51.72 49.68 50.89 48.84 49.15 48.68 50.75 51.49 53.07 55.41 55.34 56.00 54.55 56.09 55.40 55.64 58.92 59.55 58.69 58.17 59.24 65.95
55.78 55.42 54.92 54.27 54.26 54.94 55.05 55.02 55.01 55.18 55.00 55.28 55.53 54.07 49.44 48.81 59.43 60.49 57.35 55.55 57.25 56.46 51.04 52.75 52.19 50.69 50.63 48.01 51.15 50.40 48.09 51.44 53.71 55.03 53.88 55.82 51.37 52.20 56.37 57.86 57.44 59.26 58.84 59.76 60.09
55.30 55.25 54.77 54.10 53.70 53.74 54.13 54.65 54.57 54.52 55.09 55.13 55.49 52.88 45.58 55.96 58.67 57.41 58.72 56.35 56.93 59.19 56.12 54.11 53.28 51.52 50.28 51.18 49.14 47.04 48.36 47.17 52.92 54.48 55.16 53.83 47.15 55.00 58.02 57.04 56.22 58.68 59.48 59.70 59.87
55.22 54.99 54.86 54.26 53.43 53.29 53.37 53.59 53.51 54.38 55.17 55.39 52.73 51.32 45.61 57.91 53.06 57.50 58.86 54.49 56.57 58.05 56.85 54.67 52.11 48.74 49.74 46.17 44.10 45.55 44.32 46.80 48.83 54.46 53.25 52.41 48.91 55.35 57.89 57.88 55.92 57.65 59.25 59.41 58.66
54.93 54.92 54.55 54.17 53.41 53.49 52.73 52.83 53.18 54.31 54.25 54.24 53.89 47.56 50.22 48.92 55.84 57.73 59.28 56.61 52.39 55.69 52.16 49.92 48.49 45.61 46.65 44.88 39.01 40.55 43.57 46.25 45.50 49.61 51.80 50.29 51.02 54.63 57.40 57.28 56.07 56.60 57.76 58.38 59.65
54.74 54.58 54.41 53.33 53.16 52.81 50.92 50.13 47.74 47.02 49.31 46.72 47.80 48.09 49.34 55.80 58.62 56.50 58.18 54.62 52.35 53.11 45.61 47.63 44.05 41.73 43.95 46.22 45.70 44.70 46.07 45.63 48.20 50.47 50.49 50.46 51.62 53.41 55.42 56.95 55.76 55.64 55.79 56.74 58.81
52.22 52.71 52.88 53.16 52.81 52.25 50.66 43.33 47.24 49.32 43.03 49.34 51.26 51.21 52.69 53.96 50.64 54.20 57.28 49.95 48.38 46.83 47.92 44.84 42.31 45.85 46.94 46.50 45.37 44.57 45.10 46.14 49.29 51.19 51.55 50.62 50.77 52.62 53.54 55.66 56.25 55.63 55.46 56.26 56.59
51.77 52.08 52.31 52.58 52.40 50.72 49.75 49.63 54.83 53.41 41.54 45.60 49.70 49.48 51.04 53.14 49.43 51.73 52.69 50.35 47.67 47.03 45.82 42.84 44.21 46.93 45.50 44.67 43.59 43.93 43.80 45.99 46.35 49.78 50.31 49.57 49.12 48.19 51.23 53.17 56.14 56.18 56.72 57.84 55.85
51.16 51.16 51.62 51.46 47.96 49.53 47.73 51.74 54.98 52.79 36.99 40.62 45.06 48.27 51.71 51.75 48.12 55.73 53.72 50.37 49.61 46.36 46.09 44.56 46.32 44.69 44.16 43.59 44.93 41.76 47.53 47.27 45.83 44.11 41.05 49.39 37.78 46.53 48.78 49.00 52.09 55.03 55.56 55.42 56.22
50.99 51.35 51.26 50.97 46.08 44.60 48.87 52.44 53.47 49.40 26.00 43.67 45.85 54.82 51.24 48.10 49.52 51.75 54.50 51.05 47.21 46.63 46.06 42.72 44.27 43.48 42.75 43.87 46.17 44.82 47.80 46.67 46.19 44.83 44.37 43.58 40.42 44.57 49.03 46.90 48.74 52.44 53.72 55.08 56.10
50.74 50.85 50.77 48.79 48.53 49.31 52.61 52.56 51.26 34.82 26.89 41.11 48.95 48.09 46.90 47.67 48.75 52.28 51.48 52.20 51.42 46.63 47.12 45.48 48.46 46.61 45.26 46.65 47.00 47.81 45.55 46.06 46.42 44.58 38.33 43.82 42.49 42.90 45.87 47.78 50.13 52.59 53.79 54.60 56.08
50.66 50.89 49.89 49.87 44.60 51.37 51.35 46.82 33.42 27.93 40.96 39.83 44.17 47.99 46.57 43.83 45.43 48.17 47.11 45.09 43.68 40.15 41.25 44.41 44.89 47.43 47.65 44.20 46.80 46.02 44.34 38.26 36.27 36.56 36.33 45.18 42.73 44.63 50.38 51.28 51.26 51.78 53.21 54.34 58.17
49.98 49.48 49.61 51.03 52.96 52.12 48.51 37.29 25.43 34.84 36.42 44.69 41.22 40.02 43.16 45.04 44.64 46.69 45.07 41.75 45.43 44.16 41.98 39.91 38.53 45.01 48.09 45.46 44.04 44.44 44.96 39.53 32.78 34.73 37.56 44.51 40.78 45.08 52.20 53.67 54.01 53.77 54.74 57.62 57.69
49.18 51.14 51.00 53.24 53.45 51.66 42.49 30.13 30.75 36.53 39.98 38.19 39.57 35.17 37.76 45.00 44.89 45.79 44.40 42.43 44.04 45.34 41.06 40.64 40.21 47.54 48.06 48.00 47.38 44.14 42.28 47.35 42.88 43.31 39.81 42.04 45.60 50.44 51.93 52.32 53.40 54.19 56.41 55.76 57.28
47.81 48.17 48.96 55.43 55.31 50.61 38.33 32.98 36.17 41.21 41.50 40.57 34.67 38.01 38.53 43.11 43.07 44.12 44.14 45.81 43.47 47.21 48.89 45.31 40.12 46.61 47.24 48.53 48.50 47.61 48.62 42.13 42.59 34.23 34.15 40.39 42.66 43.37 48.94 50.55 53.28 54.10 55.22 56.86 58.69
47.37 44.23 50.78 54.15 51.63 43.31 33.96 35.67 39.02 43.54 42.82 38.45 35.52 32.73 33.54 43.62 44.44 44.73 44.25 46.06 46.78 46.93 48.93 47.39 45.54 44.06 46.68 45.05 44.27 45.50 44.82 45.54 45.80 43.96 38.59 36.45 36.88 49.97 50.93 52.60 53.08 54.62 55.68 56.44 56.88
45.45 37.75 52.93 52.83 39.07 37.60 35.66 38.72 42.06 42.37 45.61 41.86 40.59 38.11 39.45 40.21 43.18 43.73 44.29 45.85 48.42 48.62 44.81 47.91 46.16 39.75 43.39 47.92 49.47 48.26 46.40 47.10 41.98 41.23 43.78 39.08 40.64 52.35 54.06 53.65 55.17 54.88 55.63 56.50 57.34
42.46 43.53 53.52 49.48 35.65 36.64 39.35 39.85 42.33 42.26 43.51 43.31 41.18 43.61 42.10 38.72 36.10 43.47 47.34 49.53 49.04 47.46 46.01 49.05 44.77 38.34 40.75 45.11 47.74 45.42 46.64 48.05 49.06 49.15 43.59 40.60 42.10 53.12 53.61 54.22 55.02 54.59 55.38 56.18 57.05
43.80 39.24 45.84 46.53 44.05 36.23 35.77 38.07 38.88 46.41 45.70 46.55 43.75 43.72 43.43 41.54 41.12 41.70 46.44 48.34 48.75 47.80 51.96 51.99 46.94 42.74 38.10 42.37 45.90 44.11 46.05 47.66 47.80 43.23 43.43 43.24 46.32 50.32 52.10 52.67 54.36 54.76 55.35 55.61 56.18
46.65 41.25 42.82 36.26 38.18 38.76 39.50 38.93 37.38 39.38 46.71 47.54 42.87 40.89 42.71 38.96 38.80 40.08 44.76 47.55 48.71 49.69 48.56 50.44 43.42 46.19 45.86 47.30 46.68 45.91 46.13 46.39 45.51 46.10 43.34 41.98 46.64 49.25 49.97 50.26 54.32 55.71 55.06 54.93 54.87
42.34 40.09 41.66 38.69 40.74 39.49 38.59 35.87 35.88 38.73 43.68 42.21 42.02 41.90 42.14 40.25 38.63 37.68 46.50 46.97 45.58 48.09 47.18 49.81 43.19 44.41 40.55 45.07 46.01 45.17 46.15 46.97 47.50 47.87 47.41 46.06 45.42 51.74 52.26 52.64 51.49 52.74 53.76 53.33 54.12
46.98 47.89 42.28 38.66 39.42 36.98 35.58 34.87 35.34 39.54 44.85 45.75 43.64 40.33 39.12 41.12 43.77 44.06 49.23 51.68 50.28 47.77 47.04 47.66 43.28 40.98 36.07 40.98 44.03 40.87 44.88 46.85 48.11 49.13 47.03 42.87 47.82 52.40 50.73 51.50 52.60 52.60 52.70 52.43 53.54
MSLP
1017.18 1016.97 1016.77 1016.51 1016.34 1016.11 1015.86 1015.53 1015.23 1015.09 1014.88 1014.68 1014.52 1014.36 1014.06 1013.76 1013.59 1013.18 1011.03 1009.16 1008.81 1008.88 1008.66 1008.03 1007.62 1007.72 1007.33 1006.55 1005.83 1005.46 1004.50 1002.59 1001.78 1000.92 1000.03 998.79 998.90 997.69 997.49 996.94 996.58 996.53 997.30 998.92 999.65
1017.20 1016.89 1016.54 1016.30 1016.04 1015.88 1015.66 1015.42 1015.18 1014.81 1014.63 1014.45 1014.22 1014.00 1013.72 1013.45 1012.52 1010.06 1007.79 1007.84 1008.22 1008.86 1008.87 1007.96 1006.90 1006.94 1006.59 1006.12 1005.62 1004.67 1003.39 1002.46 1002.12 1001.00 1000.53 1000.03 1001.22 1001.01 999.10 997.64 997.56 997.53 997.96 999.55 1001.41
1017.22 1016.89 1016.47 1016.12 1015.82 1015.57 1015.30 1015.22 1014.92 1014.71 1014.36 1014.13 1013.99 1013.81 1013.58 1013.18 1010.97 1005.91 1004.66 1005.74 1007.02 1008.16 1008.00 1007.37 1006.59 1005.95 1005.87 1005.34 1004.82 1004.13 1002.64 1002.94 1002.10 1001.59 1001.29 1001.20 1001.61 1001.35 1000.34 998.26 998.21 997.76 997.66 998.93 999.80
1017.04 1016.68 1016.33 1015.98 1015.65 1015.35 1015.02 1014.72 1014.57 1014.34 1014.16 1014.02 1013.84 1013.61 1013.41 1012.75 1008.67 1005.21 1004.99 1004.98 1006.33 1007.39 1007.87 1006.92 1005.87 1005.12 1004.63 1004.25 1004.32 1003.94 1003.30 1002.69 1002.42 1002.05 1002.48 1001.74 1001.83 1002.11 1001.82 1000.05 999.17 998.44 998.20 998.55 998.79
1016.90 1016.57 1016.15 1015.74 1015.44 1015.14 1014.78 1014.41 1014.16 1013.95 1013.83 1013.63 1013.54 1013.59 1013.32 1010.91 1006.72 1005.01 1005.44 1005.71 1006.67 1007.06 1006.67 1006.18 1005.05 1004.30 1003.43 1003.70 1003.84 1003.14 1003.19 1002.80 1002.99 1002.71 1003.84 1003.31 1002.59 1002.94 1002.71 1001.78 1000.36 999.63 999.29 999.34 1000.13
1016.77 1016.39 1016.04 1015.76 1015.37 1014.96 1014.52 1014.23 1013.89 1013.58 1013.39 1013.30 1013.26 1013.33 1012.62 1009.39 1005.12 1004.34 1004.29 1005.07 1005.40 1005.99 1005.82 1005.37 1004.19 1003.62 1003.34 1003.01 1002.92 1003.28 1003.27 1003.12 1003.51 1003.46 1004.82 1005.12 1003.50 1003.58 1003.01 1003.15 1002.49 1000.93 1000.24 999.96 1000.77
1016.47 1016.05 1015.63 1015.28 1014.89 1014.53 1014.16 1013.78 1013.49 1013.24 1012.90 1012.85 1012.78 1012.68 1011.06 1007.03 1004.56 1003.08 1002.87 1003.37 1004.03 1004.68 1004.74 1004.60 1003.90 1003.12 1002.98 1002.49 1002.85 1003.11 1003.18 1003.31 1004.53 1004.84 1005.94 1006.18 1004.55 1003.78 1004.01 1004.17 1003.88 1002.71 1001.09 1000.93 1000.52
1016.06 1015.64 1015.25 1014.90 1014.52 1014.12 1013.66 1013.36 1012.92 1012.64 1012.31 1012.19 1012.19 1011.89 1008.97 1006.56 1005.50 1004.55 1003.84 1002.86 1002.49 1003.29 1004.23 1004.25 1003.78 1002.93 1002.37 1002.62 1002.35 1002.52 1002.91 1003.24 1004.70 1005.52 1005.64 1006.57 1004.49 1004.20 1004.23 1004.35 1004.26 1003.67 1002.31 1001.44 1000.82
1015.61 1015.22 1014.87 1014.52 1014.05 1013.65 1013.21 1012.74 1012.21 1011.65 1011.52 1011.55 1011.50 1010.66 1007.34 1004.22 1004.45 1002.42 1002.31 1001.97 1001.47 1002.30 1003.32 1003.75 1003.45 1002.92 1002.57 1001.93 1001.84 1001.75 1002.06 1003.55 1005.11 1005.27 1005.52 1005.98 1004.93 1004.60 1004.54 1004.29 1004.87 1004.81 1003.58 1002.12 1001.10
1015.14 1014.68 1014.32 1013.98 1013.70 1013.29 1012.70 1011.82 1010.47 1010.48 1010.21 1010.07 1009.74 1009.40 1005.42 1001.78 1001.12 1001.18 1001.32 1001.74 1001.43 1001.68 1002.77 1002.98 1002.48 1002.31 1001.80 1001.08 1000.07 1000.77 1001.79 1004.00 1005.35 1004.94 1005.46 1005.16 1004.80 1004.17 1003.86 1003.87 1004.51 1005.21 1004.58 1003.33 1001.55
1014.54 1014.14 1013.73 1013.43 1013.04 1012.69 1012.37 1010.60 1008.66 1008.84 1008.47 1006.66 1005.43 1003.98 1000.09 999.43 999.44 999.45 1000.07 1000.42 1001.14 1001.09 1001.45 1001.73 1001.21 999.96 1000.11 1000.02 1000.41 1001.06 1002.31 1002.83 1004.31 1004.25 1004.92 1004.25 1004.61 1003.51 1003.95 1004.11 1004.67 1004.84 1004.52 1004.10 1002.97
1014.60 1014.11 1013.62 1013.14 1012.56 1012.08 1012.11 1010.70 1007.82 1006.76 1005.70 1005.44 1003.59 1002.75 1001.43 1000.90 999.44 998.04 999.16 999.46 999.84 999.73 1000.78 1000.84 999.32 999.60 1000.13 999.91 999.88 1000.09 1001.62 1002.43 1002.87 1002.38 1003.26 1003.54 1003.16 1002.31 1003.13 1003.32 1003.96 1003.88 1003.81 1003.36 1002.64
1014.13 1013.60 1013.19 1012.55 1011.96 1010.90 1009.43 1008.42 1007.47 1006.02 1005.62 1003.06 1001.46 1000.85 999.45 999.99 998.90 997.03 997.80 998.05 998.20 998.90 999.13 998.65 998.87 999.10 999.22 999.10 999.14 999.23 1000.15 1000.89 1000.82 1001.77 1002.61 1001.99 1001.28 1000.90 1001.49 1002.57 1003.42 1003.49 1003.40 1003.07 1002.56
1013.73 1013.15 1012.64 1012.00 1011.54 1009.56 1008.20 1006.95 1007.22 1006.64 1005.06 1000.23 997.83 996.19 997.87 998.81 997.49 996.17 996.63 997.14 997.35 997.75 998.03 998.21 998.22 998.05 998.02 998.18 998.24 998.34 999.18 999.96 999.61 1000.05 999.54 999.66 998.72 999.16 1000.25 1001.24 1001.94 1002.20 1003.00 1003.20 1002.87
1013.10 1012.52 1012.16 1011.78 1010.78 1009.75 1008.35 1007.36 1006.81 1007.28 1002.58 995.01 992.76 992.01 993.31 995.40 995.01 995.19 995.58 996.34 995.98 996.58 997.21 996.62 996.37 996.60 996.80 996.92 997.11 996.96 997.26 997.97 999.65 998.07 998.20 998.07 998.98 997.63 998.67 999.82 1000.27 1001.01 1001.81 1002.32 1002.19
1012.48 1011.76 1011.18 1010.45 1009.20 1008.30 1007.66 1006.65 1006.89 1006.57 1000.43 993.80 989.80 990.99 992.87 994.71 994.36 994.70 995.06 996.00 995.91 996.06 996.07 995.93 995.80 995.49 995.97 996.25 996.55 996.89 996.94 997.02 997.32 997.54 997.59 997.42 997.60 996.07 997.12 997.78 998.87 999.99 1000.44 1000.72 1000.49
1011.49 1010.53 1010.16 1009.21 1007.38 1006.85 1006.38 1006.72 1006.77 1003.61 997.97 993.37 991.51 991.59 992.49 993.59 994.04 993.85 994.33 995.02 994.79 994.86 994.56 994.97 994.53 994.23 994.73 995.44 995.69 995.96 996.36 996.56 997.17 997.02 996.90 996.50 996.33 994.98 994.77 996.37 997.34 998.46 999.46 1000.01 1000.09
1010.49 1009.19 1007.57 1006.54 1005.84 1005.95 1006.02 1007.08 1004.75 1000.05 997.67 992.23 996.46 996.17 994.32 993.53 993.51 993.00 994.05 994.81 995.09 994.67 994.13 993.67 993.29 993.10 993.20 994.02 994.40 994.87 995.41 995.57 995.79 996.38 996.37 996.26 995.27 994.10 993.56 994.89 996.51 997.85 998.75 999.36 1000.05
1009.52 1006.85 1005.10 1003.49 1003.71 1005.35 1006.18 1005.52 1002.62 999.91 997.91 998.21 998.50 997.43 995.50 993.03 993.22 993.30 993.43 993.97 994.19 994.01 993.59 992.86 992.63 992.66 992.77 993.34 993.71 994.39 994.18 994.85 994.81 995.83 995.77 995.30 995.41 994.40 994.31 995.33 995.31 997.48 998.68 999.60 1000.66
1009.13 1006.30 1005.21 1004.70 1004.84 1005.30 1005.96 1003.35 1001.64 1000.10 998.94 999.47 999.90 998.86 996.45 993.35 992.87 993.40 993.09 993.35 993.82 993.92 993.59 992.83 992.66 992.13 992.39 993.21 993.14 993.12 994.49 994.23 995.22 996.60 995.90 994.71 995.16 994.85 995.38 995.86 996.75 997.91 998.95 999.90 1000.75
1008.51 1005.76 1006.06 1005.55 1006.00 1005.78 1004.91 1002.60 1001.31 999.67 999.39 999.28 1000.79 1000.91 998.90 994.37 993.17 992.93 992.55 992.40 993.05 993.16 992.99 993.07 993.14 993.12 992.39 992.39 992.25 992.59 993.18 993.75 995.08 995.06 995.20 996.05 997.82 995.55 995.44 996.13 996.80 998.03 999.37 1000.31 1001.02
1008.57 1006.94 1005.96 1006.25 1006.63 1006.48 1005.28 1003.13 1000.86 1000.08 998.86 998.86 1000.23 999.96 997.87 996.77 994.69 994.13 992.37 991.48 992.34 992.48 993.03 993.86 993.89 994.60 992.61 992.59 992.54 992.53 992.83 993.74 994.36 994.93 995.14 996.97 998.49 998.32 996.82 996.86 997.47 998.43 999.51 1000.25 1000.97
1008.87 1006.43 1005.80 1006.39 1006.29 1005.75 1004.64 1003.10 1001.13 999.18 997.87 997.38 998.53 998.96 998.82 998.40 997.82 995.70 992.25 991.56 992.21 992.57 993.55 994.27 994.40 994.76 993.96 993.30 993.23 992.72 993.07 993.42 994.33 994.83 995.09 996.27 998.65 998.55 998.39 998.59 998.54 999.14 999.98 1000.85 1001.44
1009.50 1006.84 1005.60 1005.83 1006.33 1006.47 1004.87 1003.10 1000.61 998.42 997.33 997.03 998.28 999.14 998.75 998.57 998.36 996.37 992.92 992.94 992.73 993.33 994.30 995.26 995.12 995.36 994.92 993.89 993.66 993.40 993.32 993.46 994.19 995.25 995.96 997.54 998.30 999.08 1000.03 1000.27 999.74 1000.09 1000.60 1001.36 1002.16
1009.23 1007.91 1008.31 1006.95 1006.36 1006.19 1005.51 1003.80 1002.04 1000.03 998.45 998.22 998.78 999.13 998.66 999.04 999.15 997.63 995.55 993.45 993.76 994.27 995.61 995.69 996.26 996.46 996.70 995.57 994.58 994.36 994.21 993.90 994.73 995.72 996.46 999.18 999.38 1000.56 1001.51 1001.68 1000.28 1000.76 1001.39 1001.75 1002.68
1009.56 1009.77 1009.23 1008.35 1007.23 1006.19 1005.42 1004.48 1003.30 1001.30 999.71 999.21 999.43 999.85 1000.00 999.92 999.96 998.62 995.93 994.19 993.61 994.96 996.21 996.55 997.66 998.22 998.67 998.10 997.07 995.63 995.03 994.79 995.26 996.73 997.41 999.25 1000.07 1001.84 1003.06 1002.69 1002.97 1002.53 1002.30 1002.45 1002.94
1011.03 1009.80 1009.94 1008.72 1007.69 1006.83 1006.37 1005.53 1003.47 1002.18 1000.76 1000.04 1000.12 1000.57 1000.76 1001.02 1000.34 998.54 996.73 994.92 995.14 995.59 996.15 997.40 998.95 999.80 1000.00 1000.50 998.64 997.44 996.00 995.94 996.56 997.54 998.49 999.43 1000.11 1000.69 1001.54 1002.26 1002.84 1002.43 1002.57 1002.84 1003.55
Wind_Speed
14 14 12 11 11 12 13 13 12 13 13 12 12 13 13 12 13 14 24 17 13 15 6 9 18 18 19 20 21 21 18 18 27 25 21 22 19 10 15 15 8 3 17 17 15
14 13 12 12 12 11 12 13 13 13 14 13 12 12 14 14 17 25 20 23 23 8 19 15 17 21 18 22 19 21 18 26 22 23 13 4 10 19 14 9 9 11 21 21 19
16 15 14 13 12 12 11 14 14 14 13 12 12 11 13 14 15 14 5 32 24 16 16 19 19 23 25 20 24 25 23 22 25 19 10 5 9 23 27 16 14 13 10 18 21
15 16 17 15 13 13 12 13 14 15 15 13 12 11 10 13 8 8 10 1 22 21 18 20 22 25 26 29 25 27 27 27 23 17 18 10 15 20 19 22 14 12 4 4 20
15 15 15 16 15 14 12 13 14 14 14 13 11 11 12 12 22 16 9 14 18 21 24 23 24 24 27 25 26 30 28 23 28 17 12 23 14 15 21 26 20 17 12 9 7
15 16 16 17 17 16 13 12 13 13 14 13 12 11 11 23 15 21 21 16 15 21 23 24 19 23 24 26 27 26 27 29 19 16 14 22 20 15 21 17 28 18 20 13 12
15 15 15 15 16 16 15 12 13 14 15 16 15 11 15 27 14 16 13 18 22 21 24 27 25 22 24 26 25 27 30 27 13 21 19 24 22 24 21 17 23 29 19 23 16
16 15 15 15 16 17 17 17 16 17 17 18 17 15 18 18 26 33 28 20 21 21 23 23 24 24 25 23 27 30 30 17 22 23 19 20 21 19 19 20 20 22 22 20 23
18 17 16 17 16 17 18 19 21 21 20 18 13 15 16 18 25 32 23 22 16 18 19 21 24 24 23 23 22 26 16 17 20 19 20 25 24 20 20 20 14 20 23 23 21
20 19 17 16 18 18 20 23 22 20 15 12 14 10 14 23 22 25 27 25 19 17 19 25 21 21 22 20 20 21 24 20 22 12 26 23 24 20 18 23 20 18 20 25 26
20 20 19 15 17 18 17 13 10 8 15 13 16 20 28 15 19 20 27 26 25 21 23 27 22 26 31 29 25 25 13 21 22 21 29 26 24 20 22 14 22 17 16 20 22
21 20 18 19 19 21 16 10 21 22 17 32 29 29 35 28 14 19 27 26 28 22 27 23 26 29 28 27 29 30 25 27 28 30 24 25 28 21 19 19 21 21 16 16 20
20 19 18 19 21 18 15 17 21 23 11 19 29 31 34 26 26 21 31 29 29 28 30 27 26 27 28 27 28 28 24 29 26 25 33 26 30 20 23 18 21 18 17 14 21
21 20 19 18 18 10 16 10 5 7 6 17 25 30 32 26 29 23 30 31 18 29 30 26 26 28 28 28 30 24 23 31 16 14 17 27 13 15 21 22 21 20 18 14 16
22 21 19 12 14 17 20 18 10 3 8 15 36 17 23 32 14 30 26 31 25 22 26 28 27 30 30 27 29 25 24 26 22 22 18 19 13 19 22 22 19 20 19 21 23
23 23 21 15 14 15 17 9 3 4 13 14 11 26 23 34 31 28 26 28 25 27 28 27 27 26 29 27 26 23 24 23 17 12 14 17 18 15 21 23 22 22 19 19 19
27 27 23 16 17 15 14 1 4 10 13 20 16 25 27 27 34 31 32 29 26 24 24 30 30 26 29 29 26 28 20 10 10 9 12 16 15 16 24 25 24 20 19 17 9
29 32 19 16 15 15 11 2 13 14 33 23 25 25 21 27 33 25 29 26 28 23 16 21 25 27 21 22 23 24 20 13 17 14 14 16 19 18 11 23 27 22 18 13 10
33 12 12 7 9 4 5 9 11 22 27 17 22 1 22 30 24 23 31 29 27 27 19 20 24 28 25 21 25 22 26 25 18 6 16 16 12 19 20 16 18 22 17 13 12
13 15 4 9 8 7 5 18 18 25 23 8 9 8 8 29 29 24 27 30 29 28 23 14 16 22 25 22 26 24 20 19 3 8 6 14 18 15 20 19 19 18 14 11 10
9 9 5 10 5 2 6 13 17 22 24 17 7 9 24 30 30 24 21 25 29 29 24 15 9 12 24 20 22 15 18 15 14 16 6 4 6 10 19 16 18 19 17 12 9
7 5 3 5 1 1 4 8 12 26 26 7 7 16 5 14 8 11 24 18 26 22 19 11 2 11 22 19 18 20 18 20 11 15 10 9 3 3 13 15 16 18 16 13 10
8 8 2 1 2 3 7 17 24 23 22 16 7 11 7 1 4 21 22 16 27 18 15 9 5 11 18 21 22 21 21 16 15 9 11 4 9 7 17 8 11 14 15 12 8
5 6 3 4 2 5 8 10 18 18 10 4 2 5 3 7 3 9 9 14 18 16 8 7 6 13 10 16 17 16 12 16 14 8 9 4 14 19 21 19 15 14 12 14 6
3 5 8 9 9 13 11 9 16 10 7 7 1 8 5 2 1 5 12 18 19 21 11 6 9 10 5 11 13 14 15 15 14 16 13 12 15 5 11 18 9 14 11 11 9
7 5 5 8 13 18 7 8 8 11 10 8 5 7 4 3 2 5 14 17 22 24 19 7 5 5 3 5 10 17 20 14 4 9 4 13 4 17 8 15 13 9 9 10 8
7 6 2 10 12 12 10 11 13 14 7 5 7 5 4 4 10 14 19 11 22 20 15 12 6 4 3 7 8 11 17 9 14 15 6 6 9 19 19 21 20 7 6 6 11
Wind_Direction
336 326 321 317 318 319 318 314 312 308 307 304 304 309 305 292 276 252 240 235 215 235 324 279 210 226 231 239 244 233 246 238 243 236 251 267 346 302 274 237 298 255 87 113 156
334 326 315 316 316 317 318 313 309 307 303 300 300 306 310 311 287 270 251 209 232 173 225 229 230 207 226 227 229 236 230 240 242 252 303 294 341 271 263 272 257 239 109 126 122
331 327 322 319 316 312 312 312 304 299 298 298 299 301 309 305 289 256 56 213 193 178 232 220 225 210 219 219 220 231 242 226 249 253 321 158 175 255 312 220 229 248 167 152 175
332 330 328 325 317 310 303 304 302 297 297 295 295 294 301 286 259 77 72 126 179 190 219 229 223 224 212 222 221 227 241 245 235 258 317 214 200 288 305 296 3 334 25 300 183
323 325 325 323 320 308 301 298 301 299 295 289 283 291 283 232 246 255 129 137 170 197 206 213 217 214 223 220 223 229 232 233 241 256 324 297 238 261 291 295 327 319 312 280 15
318 320 321 321 318 310 301 298 289 289 290 283 274 277 243 257 259 250 230 170 185 196 209 217 217 217 223 225 226 229 232 239 274 224 247 292 266 260 269 306 317 308 299 290 133
311 310 312 317 317 311 305 292 288 285 280 278 271 253 247 237 278 284 247 216 199 198 208 221 223 219 221 226 228 230 235 227 220 276 231 267 258 250 257 278 293 315 282 300 284
303 299 301 305 313 314 311 304 290 284 276 275 265 252 254 257 249 257 267 256 213 204 215 222 226 232 233 230 225 229 228 206 213 240 220 243 267 268 254 257 286 295 306 291 290
298 295 294 293 302 306 304 297 288 276 270 264 254 229 258 248 231 239 221 237 210 203 206 224 221 225 234 234 230 221 209 203 234 234 237 226 251 257 259 248 246 279 297 304 268
300 293 291 291 300 302 302 291 273 269 244 247 231 197 246 249 224 218 226 211 219 204 202 217 210 215 225 218 220 220 211 196 221 226 224 226 229 237 233 259 208 250 285 295 298
313 307 301 300 296 294 306 313 244 211 220 206 193 226 293 232 220 196 201 197 210 203 203 207 207 209 213 216 222 224 234 221 223 221 243 216 225 227 249 214 213 226 245 271 299
320 316 311 296 294 289 285 250 260 315 287 221 246 225 251 270 279 199 185 196 200 200 200 197 217 205 217 221 218 233 190 218 230 222 216 208 224 224 228 224 221 215 233 273 305
312 309 306 301 296 285 260 253 289 258 258 262 244 229 240 234 246 211 182 195 195 200 200 207 208 206 210 218 222 231 197 229 226 205 209 221 220 216 212 213 214 209 244 275 282
312 309 306 306 286 291 287 349 61 31 247 260 232 240 218 228 234 235 183 195 184 203 202 214 204 210 206 216 219 221 222 231 242 215 218 207 242 215 202 207 207 195 219 207 264
313 310 305 295 287 285 294 307 325 67 272 260 221 207 189 194 173 214 188 197 193 199 207 205 206 206 207 210 221 223 223 218 197 221 216 206 220 260 185 206 201 198 204 205 199
308 301 296 281 260 248 262 273 1 263 241 253 151 181 165 191 217 184 202 203 224 208 204 216 218 207 204 214 215 221 232 227 236 208 224 228 207 230 182 194 190 194 206 215 198
304 299 289 279 265 268 268 166 237 231 231 263 190 163 173 181 207 173 188 194 208 206 214 207 210 216 195 211 203 218 216 195 210 226 231 218 234 251 175 177 187 182 183 213 110
307 302 276 257 244 220 221 148 231 244 238 272 25 325 240 174 199 200 169 194 212 223 214 200 208 202 195 202 203 212 212 203 192 209 223 232 224 231 187 175 172 174 190 125 127
312 303 292 310 204 123 224 222 250 251 270 359 338 217 281 174 193 178 182 194 196 215 222 200 213 195 202 194 204 203 215 227 206 304 206 204 88 61 108 114 142 159 124 128 114
309 296 8 6 13 150 237 238 250 254 282 310 329 293 282 174 189 171 196 191 191 218 231 208 215 188 182 199 214 209 202 232 94 260 271 210 158 146 146 144 130 125 115 106 125
289 320 24 26 12 175 231 237 254 256 257 282 284 281 287 223 186 179 194 180 194 206 221 239 236 209 186 196 209 193 203 218 225 230 227 128 332 292 149 161 143 135 132 144 151
304 309 331 30 114 349 288 266 298 296 292 240 217 270 275 333 161 214 198 180 190 208 210 220 256 200 192 195 216 207 207 205 227 236 259 100 206 33 182 155 135 141 144 143 127
306 288 166 103 313 256 265 280 288 272 264 258 228 279 111 244 9 240 193 172 181 190 208 188 227 166 243 186 205 216 213 219 216 276 253 221 168 103 54 93 115 123 124 115 120
292 326 345 222 22 313 294 302 325 320 293 161 68 315 304 127 151 288 199 149 187 180 250 308 208 199 214 186 192 212 228 205 207 199 250 84 144 151 150 179 165 132 132 137 155
264 349 17 313 326 314 329 307 330 333 29 46 170 242 339 54 238 243 271 158 192 179 211 223 173 218 38 334 203 193 215 222 157 242 229 123 152 14 33 27 140 153 149 136 139
355 350 325 285 308 326 345 334 307 328 353 3 44 29 19 116 212 315 222 172 180 180 207 172 113 82 176 286 294 230 218 229 104 88 52 71 77 150 142 77 360 333 175 161 163
333 325 14 300 338 344 354 334 310 287 358 9 73 80 44 349 298 280 265 171 171 183 188 181 130 137 227 307 260 252 218 210 162 117 74 95 222 152 155 169 191 132 110 145 108